CZ-6A DEB, 60718

Orbit data source: Space-Track

CZ-6A DEB, 60718 is space debris in LEO originally from a launch on Tue, 06 Aug 2024 UTC launched from the Taiyaun Space Center, China (TSC). Debris objects in space refer to the collection of defunct objects orbiting the Earth. Examples of debris include non-operational satellites, rocket bodies, and fragments generated from explosions, collisions, or faulty payload assembly.

Loading next visibility...
Identifier
60718, 2024-140DX
Orbit
LEO
Country
Flag of CNCN / PRC
Related business
Manufacturer
SAST
Mission
Spacecraft
Bus & Motor
Unknown
Mass
Unknown
Launch date (UTC)
2024-08-06 (2 years ago)
Launch vehicle
Unknown
Launch site
Taiyaun Space Center, China (TSC)
Object type
Payload
Rocket body
Debris
Shape & HBR
Unknown shape, 0.3 m
Radar Cross Section
Medium (>0.1 m² and <1 m²)

Expand to show TLE details & history
Last TLE update: 13 hours ago

TLE from 13 hours ago
0 CZ-6A DEB
1 60718U 24140DX  26171.30994373  .00000300  00000-0  16652-3 0  9994
2 60718  89.1702 289.2549 0105273 205.2895 154.3114 14.06000899 95076
Epoch: 2026-06-20T07:26Z
TLE epoch observation values (Epoch: 2026-06-20T07:26:19.138Z)
Latitude
-0.00001°
Longitude
-90.85125°
Altitude
945.077 km
Speed
7.344 km/s
True Right ascension
19h 17m 01s
True Declination
0° 00' 00"
Sunlit
Object was in full shadow at epoch
Visualization orbit readout
Latitude
Unknown
Longitude
Unknown
Altitude
Unknown
Speed
Unknown
Apparent Right ascension
Unknown
Apparent Declination
Unknown
Sunlit
N/A
Visualization observer readout
Local Sidereal Time
07:19:51
Azimuth
Unknown
Elevation
Unknown
Doppler factor
Unknown
Orbital elements
Apogee altitude
946.363 km
Perigee altitude
793.755 km
Semi-major axis
7,248.196 km
Eccentricity
0.01053
Inclination
89.1702°
RAAN
289.2549°
Arg. of periapsis
205.2895°
True anomaly
154.82819°
Mean anomaly
154.3114°
Eccentric anomaly
154.5704°
Mean motion
3.51721 °/min
Orbital period
102.35 mins
BSTAR
0.00016652
Loading maneuver chart data...
Computing Atmospheric mass density...
Loading historical data...
Loading historical data...
Loading historical data...
Loading historical data...
Loading historical data...
Loading historical data...
Loading historical data...

Documentation

Showing up to 5 results
|